This demonstration page uses our WeatherBlox Daily Observations layout. Learn more.

Hourly Observations for October 31, 2020

Temp ( °F °C ) Dew Point ( °F °C ) Humidity (%) Winds ( mph kmh ) Pressure ( in mb ) Visibility ( mi km ) Precip ( " mm )
12:54 am 00:54 Clear 42 5.6 35 1.7 76 76 S 9 15 30.02 1017 10 16.0934 0 0
1:54 am 01:54 Clear 42 5.6 35 1.7 76 76 SSE 8 13 30 1016 10 16.0934 0 0
2:54 am 02:54 Clear 46 7.8 38 3.3 73 73 S 10 17 29.98 1015 10 16.0934 0 0
3:54 am 03:54 Clear 49 9.4 39 3.9 69 69 S 13 20 29.95 1014 10 16.0934 0 0
4:54 am 04:54 Clear 49 9.4 39 3.9 69 69 S 14 22 29.92 1013 10 16.0934 0 0
5:54 am 05:54 Clear 47 8.3 38 3.3 71 71 S 14 22 29.91 1013 10 16.0934 0 0
6:54 am 06:54 Clear 47 8.3 38 3.3 71 71 S 13 20 29.91 1013 10 16.0934 0 0
7:54 am 07:54 Clear 49 9.4 38 3.3 66 66 S 18 30 29.87 1012 10 16.0934 0 0
8:54 am 08:54 Sunny 50 10 37 2.8 61 61 SSW 18 30 29.9 1012 10 16.0934 0 0
9:54 am 09:54 Sunny 53 11.7 38 3.3 57 57 SSW 15 24 29.94 1014 10 16.0934 0 0
10:54 am 10:54 Sunny 58 14.4 39 3.9 50 50 SW 18 30 29.93 1014 10 16.0934 0 0
11:54 am 11:54 Sunny 60 15.6 40 4.4 47 47 W 14 22 29.94 1014 10 16.0934 0 0
12:54 pm 12:54 Sunny 63 17.2 39 3.9 41 41 WNW 12 19 29.95 1014 10 16.0934 0 0
1:54 pm 13:54 Sunny 67 19.4 38 3.3 35 35 N 18 30 29.95 1014 10 16.0934 0 0
2:54 pm 14:54 Sunny 69 20.6 34 1.1 27 27 NNW 20 31 29.96 1015 10 16.0934 0 0
3:54 pm 15:54 Sunny 68 20 34 1.1 28 28 NW 23 37 29.98 1015 10 16.0934 0 0
4:54 pm 16:54 Sunny 66 18.9 33 0.6 29 29 NNW 26 43 30.02 1017 10 16.0934 0 0
5:54 pm 17:54 Mostly Sunny 64 17.8 34 1.1 33 33 NW 16 26 30.07 1018 10 16.0934 0 0
6:54 pm 18:54 Clear 61 16.1 34 1.1 36 36 NW 13 20 30.11 1020 10 16.0934 0 0
7:54 pm 19:54 Clear 58 14.4 31 -0.6 36 36 NNW 13 20 30.18 1022 10 16.0934 0 0
8:54 pm 20:54 Clear 55 12.8 26 -3.3 33 33 NW 13 20 30.21 1023 10 16.0934 0 0
9:54 pm 21:54 Clear 51 10.6 26 -3.3 38 38 WNW 7 11 30.24 1024 10 16.0934 0 0
10:54 pm 22:54 Clear 50 10 25 -3.9 38 38 NW 8 13 30.28 1025 10 16.0934 0 0
11:54 pm 23:54 Clear 49 9.4 24 -4.4 38 38 NNW 14 22 30.32 1027 10 16.0934 0 0

Powered by AerisWeather